Powrót do katalogu

STARLINK-5821

AktywnyŁącznośćVLEO
NORAD 57069·PAYLOAD·🇺🇸 United States

Wystrzelony Jun 22, 2023 z Vandenberg Space Force Base

Loading…

Następne Przeloty (najbliższe 24 godziny)

TLE

ŚwieżeSource: CelesTrak SupGP

Epoka: Sep 14, 2026, 22:28 UTC

1 57069C 23088X   26257.93659722  .00018522  00000+0  67109-3 0  2573
2 57069  43.0024 107.7741 0001341 272.4033 258.7831 15.27558488    17

Śledź STARLINK-5821 w czasie rzeczywistym z AllMySat

Download on the App Store